TimeCAT,TemperatureF,Dew PointF,Humidity,Sea Level PressureIn,VisibilityMPH,Wind Direction,Wind SpeedMPH,Gust SpeedMPH,PrecipitationIn,Events,Conditions,WindDirDegrees,DateUTC
12:00 AM,73.4,62.6,69,29.95,6.2,NNE,11.5,-,N/A,,Partly Cloudy,30,2012-12-04 22:00:00
1:00 AM,73.4,62.6,69,29.95,6.2,NNE,11.5,-,N/A,,Partly Cloudy,30,2012-12-04 23:00:00
5:00 AM,68.0,62.6,83,29.92,-9999.0,Variable,2.3,-,N/A,,Clear,0,2012-12-05 03:00:00
6:00 AM,68.0,62.6,83,29.95,-9999.0,Variable,1.2,-,N/A,,Clear,0,2012-12-05 04:00:00
7:00 AM,71.6,62.6,73,29.95,-9999.0,WNW,4.6,-,N/A,,Clear,300,2012-12-05 05:00:00
8:00 AM,72,62,64,,6,South,12.7,,,,Mostly Cloudy,170,2012-12-05 06:00:00
8:00 AM,73.4,51.8,47,30.01,-9999.0,South,12.7,-,N/A,,Clear,170,2012-12-05 06:00:00
9:00 AM,69.8,64.4,83,30.04,6.2,SW,23.0,-,N/A,Rain-Thunderstorm,Thunderstorms and Rain,220,2012-12-05 07:00:00
10:00 AM,68.0,66.2,94,30.06,6.2,SSE,11.5,-,N/A,,Mostly Cloudy,160,2012-12-05 08:00:00
11:00 AM,69.8,64.4,83,30.06,6.2,SW,16.1,-,N/A,,Mostly Cloudy,230,2012-12-05 09:00:00
12:00 PM,66.2,64.4,94,30.04,6.2,SSW,12.7,-,N/A,Rain,Light Rain,200,2012-12-05 10:00:00
1:00 PM,68.0,64.4,88,30.01,6.2,SE,10.4,-,N/A,Rain,Light Rain,130,2012-12-05 11:00:00
2:00 PM,70,65,80,,6,ENE,5.8,,,Rain,Light Rain,60,2012-12-05 12:00:00
2:00 PM,69.8,64.4,83,29.98,6.2,ENE,5.8,-,N/A,Rain,Light Rain,60,2012-12-05 12:00:00
3:00 PM,75.2,66.2,73,29.92,6.2,NE,11.5,-,N/A,,Mostly Cloudy,40,2012-12-05 13:00:00
5:00 PM,82.4,64.4,54,29.89,6.2,NW,3.5,-,N/A,,Scattered Clouds,320,2012-12-05 15:00:00
6:00 PM,80.6,64.4,58,29.89,6.2,NNW,5.8,-,N/A,,Scattered Clouds,340,2012-12-05 16:00:00
7:00 PM,78.8,66.2,65,29.89,6.2,Variable,2.3,-,N/A,,Scattered Clouds,0,2012-12-05 17:00:00
8:00 PM,76,67,67,,6,North,3.5,,,,Scattered Clouds,0,2012-12-05 18:00:00
8:00 PM,75.2,68.0,78,29.95,6.2,North,3.5,-,N/A,,Scattered Clouds,360,2012-12-05 18:00:00
9:00 PM,73.4,68.0,83,29.95,6.2,ENE,3.5,-,N/A,,Scattered Clouds,60,2012-12-05 19:00:00
10:00 PM,73.4,66.2,78,29.98,6.2,North,4.6,-,N/A,,Partly Cloudy,10,2012-12-05 20:00:00
11:00 PM,71.6,64.4,78,29.98,6.2,NE,3.5,-,N/A,,Partly Cloudy,50,2012-12-05 21:00:00